Погода в Белогорске

Погода в Белогорске : погода сейчас, прогноз погоды и архив. Всё, что Вы хотите узнать о погоде в Белогорске!

Хотите узнать прогноз погоды в Белогорске? Тогда Вам сюда: Погода в Белогорске

Поиск расширенной информации на нашем сайте:

Другие новости

Новости СМИ2

Главная страница сайта

Новости сайта

02.10.2013

Напоминаем, что на нашем новом сайте вы можете получить высокодетализированные прогнозы погоды по пунктам России, СНГ и мира (включающие важные для авиации метеовеличины, такие как направление и скорость ветра, видимость, явления погоды, количество и форма облачности, нижняя и верхняя граница облачности), а также ознакомиться с разнообразными материалами по авиационной метеорологии и подборкой полезных ссылок на эту тему.

Сайт Метеоцентр.Азия посвящён разработке технологий оптимизации авиаметеорологического обслуживания, включая проектирование и перспективное создание нескольких автоматизированных авиаметеорологических систем:
- система выпуска высокодетальных прогностических карт явлений погоды для нижнего воздушного пространства по России и ближнему зарубежью;
- система верификации прогнозов TAF (выпускаемых синоптиками официальных АМСГ РФ и ближнего зарубежья) и AUTOTAF (выпускаемых сайтом Метеоцентр.Азия) - выявление ошибок, онлайн-сопоставление с фактической погодой METAR, автоматическое внесение коррективов в прогнозы при резком отклонении фактической погоды от прогноза, подсчёт оправдываемости прогнозов по элементам и в целом;
- система обработки, анализа и отображения авиаметеорологической информации для применения провайдерами метеорологической информации.


Погода в Белогорске - сегодня

Время (UTC), дата Ветер
(°,м/с) 
Видим.   Явления Облачность Т
(°С)
Тd
(°С)
f(%) Тe
(°С)
Pmin
(гПа)
dP
(гПа)
Po
(мм)
O2
(г/м3)
Тmin Tmax R s Состояние
почвы
15 24.03.17 250 (З) 20000 м    ясно 
-2.8 -8.7 64 -2  1019.9  -0.2  748  305           
18 24.03.17 тихо ()   20000 м    ясно 
-5.3 -8.1 81 -5  1019.5  -0.6  748  308           
21 24.03.17 260 (З) 20000 м    ясно 
-6.5 -9.2 81 -6  1019.6  -0.1  747  309           
00 25.03.17 320 (СЗ) 20000 м    6/0 средняя, верхняя 
[Ac cast|Ci fib]
-1.5 -7.2 65 -1  1019.4  0.3  748  304  -6.9         
03 25.03.17 360 (С) 20000 м    8/3 1000 м верхняя 
[Cu hum|Ci fib]
+4.6 -10.6 32 +4  1018.8  -0.1  748  297           
06 25.03.17 360 (С) 20000 м    8/8 1000 м верхняя 
[Sc diur, vesp|Ci fib]
+5.9 -11 28 +5  1017.6  -1.1  747  296           
09 25.03.17 330 (СЗ) 20000 м    8/8 1000 м 
[Sc diur, vesp]
+4 -10.3 34 +5  1017.9  0.1  747  298           
12 25.03.17 300 (СЗ) 20000 м    4/0 средняя 
[Ac trans]
+0.1 -9.5 48 +1  1019  0.8  748  302    +6.2       
15 25.03.17 300 (СЗ) 20000 м    ясно 
-2.1 -8.9 60 -2  1019.2  -0.1  747  304           
18 25.03.17 320 (СЗ) 20000 м    ясно 
-4.5 -9.6 67 -4  1019.2  -0.2  747  307           
21 25.03.17 330 (СЗ) 20000 м    3/0 средняя 
[Ac lent]
-6.5 -10.3 74 -6  1019.6  0.3  748  310           
00 26.03.17 320 (СЗ) 20000 м    ясно 
-1 -8.2 58 1019.9  0.7  748  303  -6.6         
03 26.03.17 350 (С) 20000 м    ясно 
+5.4 -10.5 31 +4  1019.2  -0.2  748  296           
06 26.03.17 360 (С) 20000 м    4/4 1000 м 
[Cu hum]
+6.3 -11.3 27 +5  1017.8  -1.3  747  295           
09 26.03.17 010 (С) 2{10}  20000 м    4/3 600 м средняя 
[Cu hum|Ac trans]
+4.7 -11.9 29 +4  1017.7  -0.2  747  297           
12 26.03.17 210 (ЮЗ) 20000 м    3/3 600 м 
[Sc]
+0.4 -7.9 54 +1  1018.8  0.7  747  301    +7       
15 26.03.17 310 (СЗ) 20000 м    ясно 
-2.2 -8.8 61 -2  1018.9  -0.1  747  304           
18 26.03.17 310 (СЗ) 20000 м    ясно 
-4.5 -10 65 -4  1018.7  -0.4  747  307           
21 26.03.17 320 (СЗ) 20000 м    3/0 средняя 
[Ac trans]
-5.8 -10.2 71 -5  1018.1  -0.7  746  308           
00 27.03.17 010 (С) 20000 м    3/0 средняя 
[Ac trans]
+0.1 -8.9 51 +1  1017.9  0.3  747  302  -5.8         
03 27.03.17 360 (С) 20000 м    ясно 
+6.2 -10.8 28 +6  1016.6  -0.8  746  295           
06 27.03.17 020 (С) 20000 м    6/4 1000 м верхняя 
[Cu hum|Ci fib]
+6.7 -12.4 24 +7  1014.8  -1.7  745  294           
09 27.03.17 340 (С) 20000 м    9/1 1000 м средняя, верхняя 
[Sc diur, vesp|Ac trans|Ci fib]
+6.1 -11.1 28 +7  1014.2  -0.6  744  294           
12 27.03.17 200 (Ю) 20000 м    8/0 средняя, верхняя 
[Ac trans|Ci fib]
+2.4 -10.5 38 +3  1014.8  0.3  745  298    +8       
15 27.03.17 180 (Ю) 20000 м    10/0 средняя, верхняя 
[Ac trans|Ci fib]
+0.9 -7.7 53 +2  1014.2  -0.7  744  300           
Время (UTC), дата Ветер
(°,м/с) 
Видим.   Явления Облачность Т
(°С)
Тd
(°С)
f(%) Тe
(°С)
Pmin
(гПа)
dP
(гПа)
Po
(мм)
O2
(г/м3)
Тmin Tmax R s Состояние
почвы

Для получения пояснительной информации подведите курсор к названию столбца.

ПОГОДА в Белогорске - архив

Всё, что Вы хотите узнать о погоде в Белогорске - удобно и подробно!

Выберите нужную дату (начиная с 1 января 2015* года) и нажмите кнопку "Найти".
Будут отображены архивные сводки погоды по пункту Белогорск, начиная с указанной даты.


Отображать данные в формате CSV (для использования в таблицах Excel)


Внимание! Наш архив погоды предназначен исключительно для личного некоммерческого использования в познавательных целях. Если Вам необходимы официальные справки о состоянии погоды (для производственных, юридических, коммерческих и т.п. целей), обращайтесь в органы Росгидромета.

*Примечание: данная дата относится к архиву по метеостанциям СССР (Россия, СНГ, Балтия).
Архив по метеостанциям Зарубежной Европы и Азии (кроме Китая) хранится 10 дней, по другим регионам земного шара (Китай, Африка, Америка, Австралия, Океания) - 1 день.

Белогорск - район местоположения метеостанции


Название, широта, долгота, высота метеостанции:
Белогорск 50.9°ш. 128.5°д. 178 м над ур. моря [Российская Федерация]

Дополнительная информация

В oтличие oт бoльшинства пoгoдных сайтoв мы публикуем пoдрoбную метеoинфoрмацию в детальнoм прoфессиoнальнoм фoрмате.

Характеристики температуры и влажнoсти вoздуха измеряются на высoте 2 м в тени вдали oт зданий и деревьев.
Скoрoсть ветра измеряется на высoте 10 м (на урoвне рoста челoвека скoрoсть ветра ниже в 1.5-2 раза). Если метеoстанция нахoдится в гoрoде или в лесу, тo скoрoсть ветра занижена на 2-4 м/с пo сравнению с oткрытым местoм. Скoрoсть ветра над акватoриями крупных рек и oзёр, а также на вершинах хoлмoв на 2-5 м/с выше, чем в oбычных услoвиях.
Атмoсфернoе давление в разных тoчках местнoсти мoжет значительнo oтличаться oт давления на метеoстанции, в зависимoсти oт услoвий рельефа (при пoдъёме на 10 м давление пoнижается примернo на 1 мм рт.ст.).